Location: Newark
(43.6583°N, 1.6617°E)
Time: 12:43:08
(UTC+00:00)

Vanguard 1 Rocket - Pass Details

Date: 23 August 2019
Orbit: 651 x 4225 km, 34.3° (Epoch: 20 September)

Event Time Altitude Azimuth Distance (km) Brightness Sun altitude
Rises 01:39:21 0° 224° (SW) 2,994 - -30.0°
Reaches altitude 10° 01:42:11 10° 204° (SSW) 2,043 - -29.7°
Maximum altitude 01:45:19 19° 158° (SSE) 1,611 - -29.4°
Exits shadow 01:48:16 12° 118° (ESE) 2,170 9.4 -29.1°
Drops below altitude 10° 01:48:50 10° 113° (ESE) 2,344 9.6 -29.1°
Sets 01:52:24 0° 96° (E) 3,630 10.8 -28.7°
